Terug naar catalogus

TIANZHOU 10

ActiefWetenschapVLEO
NORAD 69049·PAYLOAD·🇨🇳 China

Gelanceerd May 11, 2026 vanaf Wenchang Space Launch Site

Loading…

Volgende Passages (komende 24 uur)

TLE

VersSource: Space-Track

Epoch: Sep 14, 2026, 14:01 UTC

1 69049U 26102A   26257.58463244  .00018605  00000-0  22780-3 0  9999
2 69049  41.4676 139.2408 0002663 278.8217  81.2320 15.59928303307941

Volg TIANZHOU 10 in realtime met AllMySat

Download on the App Store